TimeCDT,TemperatureF,Dew PointF,Humidity,Sea Level PressureIn,VisibilityMPH,Wind Direction,Wind SpeedMPH,Gust SpeedMPH,PrecipitationIn,Events,Conditions,WindDirDegrees,DateUTC
12:41 AM,69.8,64.4,83,29.88,10.0,South,5.8,-,N/A,,Mostly Cloudy,190,2012-10-23 05:41:00
1:52 AM,70.0,66.0,87,29.84,10.0,South,8.1,-,N/A,,Overcast,170,2012-10-23 06:52:00
2:52 AM,71.1,66.0,84,29.83,10.0,South,10.4,17.3,N/A,,Overcast,180,2012-10-23 07:52:00
3:52 AM,71.1,66.0,84,29.82,10.0,South,11.5,18.4,N/A,,Overcast,180,2012-10-23 08:52:00
4:52 AM,70.0,66.0,87,29.81,10.0,South,9.2,17.3,N/A,,Mostly Cloudy,180,2012-10-23 09:52:00
5:52 AM,70.0,64.9,84,29.81,10.0,South,11.5,-,N/A,,Overcast,190,2012-10-23 10:52:00
6:52 AM,70.0,64.9,84,29.82,10.0,South,10.4,20.7,N/A,,Overcast,180,2012-10-23 11:52:00
8:52 AM,71.1,64.9,81,29.83,10.0,South,12.7,23.0,N/A,,Overcast,180,2012-10-23 13:52:00
9:52 AM,72.0,64.9,78,29.84,10.0,South,15.0,23.0,N/A,,Overcast,180,2012-10-23 14:52:00
10:52 AM,73.0,64.9,76,29.84,10.0,South,15.0,23.0,N/A,,Overcast,190,2012-10-23 15:52:00
11:52 AM,75.0,66.0,73,29.83,10.0,South,17.3,27.6,N/A,,Overcast,180,2012-10-23 16:52:00
12:52 PM,77.0,66.0,69,29.80,10.0,South,21.9,29.9,N/A,,Mostly Cloudy,190,2012-10-23 17:52:00
1:52 PM,79.0,66.0,64,29.78,10.0,South,17.3,23.0,N/A,,Overcast,190,2012-10-23 18:52:00
2:52 PM,79.0,66.0,64,29.76,10.0,South,13.8,21.9,N/A,,Overcast,190,2012-10-23 19:52:00
3:01 PM,78.8,66.2,65,29.79,10.0,South,13.8,27.6,N/A,,Mostly Cloudy,180,2012-10-23 20:01:00
3:52 PM,79.0,66.0,64,29.75,10.0,South,13.8,27.6,N/A,,Scattered Clouds,170,2012-10-23 20:52:00
4:52 PM,79.0,66.0,64,29.75,10.0,South,12.7,26.5,N/A,,Mostly Cloudy,170,2012-10-23 21:52:00
5:52 PM,77.0,64.9,66,29.77,10.0,South,15.0,23.0,N/A,,Partly Cloudy,180,2012-10-23 22:52:00
6:52 PM,75.9,66.0,71,29.79,10.0,South,11.5,23.0,N/A,,Mostly Cloudy,180,2012-10-23 23:52:00
7:52 PM,75.0,66.0,73,29.81,10.0,South,10.4,17.3,N/A,,Mostly Cloudy,170,2012-10-24 00:52:00
8:52 PM,73.0,66.0,79,29.81,10.0,South,10.4,19.6,N/A,,Partly Cloudy,170,2012-10-24 01:52:00
9:52 PM,73.0,64.9,76,29.82,10.0,South,12.7,19.6,N/A,,Clear,180,2012-10-24 02:52:00
10:52 PM,72.0,64.9,78,29.83,10.0,North,-9999.0,-,N/A,,Clear,0,2012-10-24 03:52:00
11:52 PM,71.1,64.9,81,29.83,10.0,South,9.2,-,N/A,,Clear,180,2012-10-24 04:52:00